Washington Executive (W32)
Clinton, MD
Field Elevation: 249
Lat: 38°44.89N  Long: 76°55.97W
CTAF/Unicom Freq: 122.8000
   
    
Weather Advisories
10/23/2014 20:31 Z
Altimeter 29.87" Hg
Wind 334° @ 15 KT
Gusts 25 KT
Temperature 16° C (61° F)
Dewpoint -6° C (21° F)
Relative Humidity 23%
Density Altitude 495 feet
Condensation Altitude 10,897 feet
  Wind and Runways
Indicated Runway = 5
History
 
 
More Info
All DigiWx sites map
Weather Radar
NOAA Forecast
 
Airport IQ 5010
(HMIEM) Shock Trauma Ctr
(26N) Ocean City
 
about DigiWx
 
FAA Disclaimer: The data displayed is for advisory purposes only and is not to be used for flight planning or operations. For official data, please call (not available) to hear the current automated AWOS voice message.
  METAR W32 232031Z AUTO 33015G25KT 16/M06 A2987